Location: Miami
(25.7742°N, 80.1936°W)
Time: 00:18:20
(UTC-04:00)

ISS - Pass Details

Date: 21 June 2025
Orbit: 413 x 417 km, 51.6° (Epoch: 16 July)

Event Time Altitude Azimuth Distance (km) Brightness Sun altitude
Exits shadow 03:57:22 20° 43° (NE) 1,028 -1.1 -28.2°
Drops below altitude 10° 03:58:31 10° 43° (NE) 1,489 0.0 -28.0°
Sets 04:00:37 0° 42° (NE) 2,355 1.3 -27.7°
